Flag for Belgium Weather past 2 weeks in Charleroi, Belgium

Now
39 °F

Clear.


Feels Like: 34 °F
Forecast: 43 / 62 °F
Wind: 8 mph from Northeast

Location: Charleroi / Gosselies

Current Time: Apr 19, 2015 at 5:27:54 AM

Latest Report: Apr 19, 2015 at 4:50 AM


Visibility: 10 mi

Pressure: 30.18 "Hg

Humidity: 81%

Dew point: 34 °F

Location of CharleroiLocation

Historic Weather in Charleroi — Graph

°F

Charleroi temperature yesterday

Maximum temperature yesterday: 55 °F (at 2:50 PM)
Minimum temperature yesterday: 36 °F (at 5:50 AM)
Average temperature yesterday: 47 °F

Past Weeks' High & Low Weather Summary

 TemperatureHumidityPressure
High75 °F (Apr 15, 3:50 PM)100% (Apr 7, 4:50 AM)30.66 "Hg (Apr 7, 4:50 AM)
Low34 °F (Apr 5, 3:50 AM)19% (Apr 10, 3:50 PM)29.89 "Hg (Apr 16, 7:50 PM)
Average50 °F67%30.26 "Hg
* Reported Apr 4 3:20 AM — Apr 19 3:50 AM, Charleroi, Weather by CustomWeather, © 2015

Note: Actual official high and low records may vary slightly from our data, if they occured in-between our weather recording intervals... More about our weather records

Advertising

Charleroi weather history for previous 24 hours

 ConditionsComfort  
Time TempWeatherWind HumidityBarometerVisibility
3:50 AM
Sun, Apr 19
39 °FPassing clouds.3 mph87%30.21 "HgN/A
3:20 AM41 °FClear.9 mph81%30.21 "Hg10 mi
2:50 AM41 °FClear.9 mph81%30.21 "Hg10 mi
2:20 AM41 °FClear.10 mph81%30.24 "Hg10 mi
1:50 AM43 °FClear.9 mph76%30.24 "Hg10 mi
1:20 AM43 °FClear.10 mph71%30.24 "Hg10 mi
12:50 AM43 °FClear.10 mph66%30.24 "Hg10 mi
12:20 AM43 °FClear.7 mph66%30.24 "Hg10 mi
11:50 PM
Sat, Apr 18
43 °FClear.8 mph66%30.24 "Hg10 mi
11:20 PM45 °FClear.8 mph57%30.24 "Hg10 mi
10:50 PM46 °FClear.8 mph53%30.24 "Hg10 mi
10:20 PM46 °FClear.9 mph57%30.27 "Hg10 mi
9:50 PM46 °FClear.9 mph57%30.24 "Hg10 mi
9:20 PM48 °FSunny.8 mph50%30.24 "Hg10 mi
8:50 PM50 °FSunny.10 mph47%30.24 "Hg10 mi
8:20 PM52 °FSunny.12 mph47%30.24 "Hg10 mi
7:50 PM52 °FSunny.15 mph44%30.24 "Hg10 mi
7:20 PM54 °FSunny.16 mph41%30.24 "Hg10 mi
6:50 PM54 °FSunny.15 mph41%30.24 "Hg10 mi
6:20 PM55 °FPassing clouds.15 mph36%30.24 "HgN/A
5:50 PM55 °FSunny.16 mph36%30.24 "Hg10 mi
5:20 PM55 °FSunny.18 mph38%30.24 "Hg10 mi
4:50 PM55 °FSunny.18 mph36%30.24 "Hg10 mi
4:20 PM55 °FPassing clouds.18 mph36%30.27 "HgN/A
3:50 PM55 °FSunny.18 mph36%30.27 "Hg10 mi
3:20 PM55 °FSunny.20 mph36%30.30 "Hg10 mi
2:50 PM55 °FSunny.18 mph38%30.30 "Hg10 mi
2:20 PM54 °FPassing clouds.20 mph41%30.30 "HgN/A
1:50 PM54 °FSunny.20 mph35%30.30 "Hg10 mi
1:20 PM54 °FSunny.20 mph35%30.30 "Hg10 mi
12:50 PM54 °FPassing clouds.18 mph41%30.30 "HgN/A
12:20 PM52 °FPassing clouds.18 mph44%30.30 "HgN/A
11:50 AM52 °FPassing clouds.17 mph47%30.30 "HgN/A
11:20 AM50 °FPassing clouds.16 mph58%30.30 "HgN/A
10:50 AM48 °FSunny.15 mph62%30.30 "Hg10 mi
10:20 AM48 °FSunny.12 mph62%30.30 "Hg10 mi
9:50 AM45 °FSunny.12 mph71%30.30 "Hg10 mi
9:20 AM43 °FSunny.12 mph71%30.30 "Hg10 mi
8:50 AM41 °FSunny.12 mph81%30.30 "Hg10 mi
8:20 AM39 °FPassing clouds.9 mph81%30.30 "HgN/A
7:50 AM37 °FSunny.8 mph87%30.27 "Hg10 mi
7:20 AM36 °FClear.7 mph87%30.27 "Hg10 mi
6:50 AM36 °FClear.8 mph87%30.27 "Hg10 mi
6:20 AM36 °FClear.7 mph87%30.27 "Hg10 mi
5:50 AM36 °FClear.6 mph87%30.24 "Hg10 mi
Weather by CustomWeather, © 2015

See weather overviewHow to use our weather pages